Orbital Elements
Epoch 2022 Jan. 21.0 TT = JDT 2459600.5
T 2023 Feb. 9.34861 TT Rudenko
q 3.3694123 (2000.0) P Q
z -0.0001262 Peri. 21.01183 -0.73139077 -0.60687787
+/-0.0000072 Node 117.72028 +0.56479271 -0.79468873
e 1.0004251 Incl. 20.57326 +0.38219987 +0.01300244
From 446 observations 2020 Sept. 16-2022 Jan. 31, mean residual 0".5.
|